Location: Buchberg
(46.9333°N, 15.8500°E)
Time: 01:08:27
(UTC+00:00)

Daily predictions for brighter satellites

Satellite Brightness Start Highest point End
(mag) Time Altitude Azimuth Time Altitude Azimuth Time Altitude Azimuth
Abrixas rocket 2.6 00:03:46 50° NE 00:03:46 50° NE 00:06:10 10° E
CZ-4 R/B 4.5 00:03:20 10° N 00:07:52 46° WNW 00:09:37 32° WSW
SL-8 R/B 3.9 00:08:39 46° S 00:09:27 51° SSE 00:14:07 10° ENE
Cosmos 2242 Rocket 3.5 00:05:30 10° N 00:10:05 80° W 00:11:25 46° S
Spot 1 4.3 00:09:49 36° SSE 00:11:51 86° ENE 00:16:33 10° NNW
Lacrosse 5 2.5 00:10:39 18° WSW 00:14:17 54° NNW 00:19:17 10° NE
IRAS Rocket 4.2 00:11:57 28° SSE 00:14:58 84° ENE 00:20:31 10° NNW
SL-16 R/B 2.8 00:11:55 19° SSE 00:16:33 69° ENE 00:22:47 10° N
Cosmos 1602 3.6 00:17:36 57° SSW 00:18:17 77° W 00:22:08 10° N
Meteor 1-4 Rocket 3.5 00:18:03 10° NNW 00:21:25 33° W 00:21:26 33° W
BREEZE-M DEB (TANK) 3.1 00:14:02 10° W 00:21:42 78° S 00:24:53 10° E
Meteor 2-4 Rocket 4.2 00:16:19 10° N 00:22:15 63° ENE 00:26:29 19° SSE
Okean 1 3.3 00:19:23 10° NNW 00:23:20 64° W 00:24:06 50° SSW
Cosmos 1933 Rocket 3.8 00:23:25 41° SW 00:24:37 57° WNW 00:28:54 10° N
Meteor 1-14 Rocket 4.2 00:22:27 34° S 00:25:00 84° E 00:30:42 10° NNE
Iridium 4 Rocket 4.2 00:24:13 31° SW 00:26:26 45° W 00:31:33 10° N
MOZ.5/SAFIR/RUBIN 5/SL-8 3.7 00:25:51 35° S 00:27:54 82° WSW 00:32:42 10° NNW
Cosmos 1869 Rocket 3.7 00:27:34 36° SSE 00:29:10 63° E 00:33:29 10° NNE
Helios 1B rocket 3.8 00:28:06 10° N 00:31:39 28° WNW 00:33:01 23° W
USA 267 4.3 00:32:12 23° SW 00:32:23 23° SW 00:37:26 10° WNW
Cosmos 1697 Rocket 3.3 00:27:38 10° NNW 00:33:11 56° ENE 00:38:41 10° SE
Cosmos 1437 Rocket 2.9 00:32:14 10° N 00:36:17 74° ENE 00:38:00 32° SSE
Cosmos 1703 Rocket 3.7 00:32:16 10° NNW 00:36:40 59° W 00:38:05 39° SSW
Cosmos 2221 Rocket 4.5 00:34:27 10° N 00:38:44 46° ENE 00:42:00 16° SE
SeaSat 1 2.9 00:37:49 10° NE 00:42:38 50° ESE 00:45:02 27° S
Cosmos 2082 Rocket 3.4 00:40:40 18° SSE 00:44:07 33° ESE 00:49:11 10° NE
Cosmos 614 Rocket 3.9 00:43:22 32° SW 00:45:43 75° WNW 00:50:53 10° NNE
Aureole 1 Rocket 4.0 00:43:26 27° SSE 00:45:47 52° ESE 00:51:34 10° NNE
IRS-1D 4.4 00:41:09 10° NNE 00:45:49 40° E 00:49:01 18° SSE
CZ-2D R/B 2.1 00:40:48 10° NNE 00:46:11 82° ESE 00:49:09 28° S
CZ-4B R/B 4.0 00:41:24 10° NNE 00:46:21 50° E 00:49:15 22° SSE
Cosmos 1833 Rocket 3.0 00:44:54 27° S 00:47:53 58° ESE 00:53:23 10° NE
DELTA 2 DEB (DPAF) 4.4 00:46:51 35° SSW 00:48:20 50° W 00:52:41 10° NNW
Cosmos 2100 Rocket 4.1 00:45:05 28° SSW 00:48:29 64° W 00:54:42 10° N
IKONOS-2 4.4 00:48:10 29° S 00:50:18 85° WSW 00:54:34 10° NNW
Cosmos 1184 Rocket 4.2 00:49:58 24° W 00:50:26 25° WNW 00:53:12 10° NNW
COSMOS 2406 3.2 00:49:39 29° SSW 00:52:47 89° ESE 00:58:35 10° NNE
Cosmos 1656 3.6 00:47:37 10° NNW 00:53:00 63° WSW 00:56:32 22° S
Cosmos 405 Rocket 3.2 00:52:44 34° WSW 00:53:50 44° WNW 00:57:27 10° N
Cosmos 2346 Rocket 4.4 00:48:17 10° N 00:54:30 84° W 00:58:52 20° S
Cosmos 1140 Rocket 3.5 00:52:12 29° SSW 00:54:55 78° ESE 01:00:11 10° NNE
Cosmos 1459 Rocket 4.1 00:52:49 27° SSW 00:56:10 60° WNW 01:02:17 10° N
EP 1 4.3 00:56:57 58° WSW 00:57:22 73° NW 00:59:58 10° NE
Cosmos 407 Rocket 3.5 00:55:13 29° SSW 00:58:04 78° WNW 01:03:27 10° NNE
Cosmos 1500 3.2 00:58:26 37° SSW 00:59:47 70° W 01:03:35 10° N
Cosmos 2233 Rocket 4.5 00:55:03 16° SSE 00:59:58 57° E 01:06:05 10° NNE
Cosmos 220 Rocket 4.1 00:57:07 10° NNW 01:01:15 50° WSW 01:02:54 31° SSW
Cosmos 1802 Rocket 4.2 01:03:01 24° SSW 01:06:56 62° WNW 01:13:20 10° N
CZ-4C R/B 3.9 01:11:32 30° SW 01:12:34 35° W 01:16:00 10° NNW
Meteor 1-13 Rocket 4.2 01:08:04 10° NNW 01:13:51 82° W 01:18:39 15° S
Cosmos 1666 2.7 01:13:10 26° S 01:15:12 77° E 01:18:59 10° NNE
ARIANE 5 R/B 3.7 01:13:29 10° NNE 01:18:13 37° E 01:22:58 10° SSE
Okean 1-7 4.4 01:14:43 10° NNW 01:18:19 25° W 01:19:45 21° WSW
Cosmos 676 Rocket 4.0 01:16:40 22° SSW 01:20:05 83° ESE 01:25:25 10° NNE
ADEOS II 2.2 01:19:10 10° NNE 01:24:27 74° ESE 01:28:37 16° S
NPP 3.9 01:19:58 10° N 01:25:14 56° WNW 01:28:51 20° SW
Cosmos 1725 Rocket 4.1 01:21:06 21° SSW 01:25:24 64° WNW 01:31:38 10° N
SL-08 R/B 3.7 01:23:46 10° SSE 01:28:28 67° ENE 01:33:18 10° N
Resurs 1-4 Rocket 2.7 01:23:49 10° N 01:28:51 44° WNW 01:32:21 19° SW
Cosmos 1743 4.1 01:27:35 10° SSE 01:31:04 35° E 01:34:36 10° NNE
Cosmos 1733 Rocket 3.0 01:29:34 20° S 01:32:33 86° W 01:36:54 10° N
ISS -3.3 01:29:38 10° WNW 01:32:58 64° NNE 01:36:19 10° ESE
AQUA 4.2 01:28:35 10° N 01:33:14 53° WNW 01:36:23 20° SW
Abrixas rocket 1.7 01:35:54 10° WNW 01:38:47 69° SSW 01:41:40 10° ESE
Tsikada Rocket 4.3 01:33:18 10° NNW 01:39:32 54° W 01:45:05 13° SSW
ATLAS 5 CENTAUR R/B 2.4 01:37:32 10° NW 01:43:13 87° NE 01:49:50 10° SE
Gbstr 26 Del rocket 3.0 01:41:20 10° WNW 01:45:32 69° SSW 01:50:38 10° SE
Cosmos 1242 Rocket 3.0 01:43:59 10° N 01:47:24 58° ENE 01:50:50 10° SSE
Cosmos 2369 4.0 01:42:39 10° NW 01:48:07 46° WSW 01:53:32 10° S
Cosmos 1980 Rocket 2.2 01:43:20 10° NNW 01:49:03 74° WSW 01:54:43 10° SSE
SL-8 R/B 3.8 01:47:05 10° W 01:51:55 78° N 01:56:44 10° ENE
deb Kosmos-1763 4.0 01:50:14 19° SSW 01:52:43 69° WNW 01:56:20 10° NNE
Meteor 2-11 Rocket 4.5 01:48:22 10° S 01:54:25 89° WNW 02:00:31 10° N
Cosmos 1378 3.1 01:53:01 10° N 01:56:47 86° E 02:00:32 10° S
IRS-P3 4.2 01:51:42 10° N 01:57:02 74° WNW 02:01:59 12° SSW
Lacrosse 5 3.8 01:53:49 10° WNW 01:58:09 27° N 02:02:29 10° NE
IDEFIX/ARIANE 42P 3.2 01:54:58 10° NNE 02:00:04 53° E 02:05:07 10° S
SL-16 R/B 3.8 01:57:01 14° SW 02:00:41 22° W 02:05:30 10° NW
Cosmos 1975 Rocket 4.4 01:57:23 10° N 02:01:36 41° ENE 02:05:49 10° SSE
BREEZE-M DEB (TANK) 4.4 02:00:18 10° W 02:03:35 36° SSW 02:13:57 10° SE
Cosmos 1536 3.8 02:02:53 15° SW 02:05:49 33° WNW 02:09:32 10° N
Cosmos 1356 3.8 02:04:45 15° SSW 02:07:26 48° WNW 02:10:48 10° N
Cosmos 1464 Rocket 4.3 02:01:10 10° S 02:07:30 72° E 02:13:51 10° NNE
Cosmos 2278 4.0 02:03:07 10° NW 02:08:34 47° WSW 02:13:59 10° S
Meteor 1-11 Rocket 4.4 02:04:11 13° SW 02:08:43 40° WNW 02:13:55 10° N
H-2A R/B 2.4 02:05:20 10° SSE 02:09:41 69° ENE 02:13:58 10° N
SL-16 R/B 3.1 02:05:52 10° NNW 02:11:28 56° ENE 02:17:01 10° SE
Cosmos 921 Rocket 4.0 02:09:18 10° NW 02:13:07 29° W 02:16:51 10° SSW
Cosmos 1975 3.4 02:11:27 10° S 02:15:21 57° E 02:19:16 10° NNE
CZ-4B R/B 4.5 02:12:55 10° ESE 02:15:30 20° ENE 02:18:06 10° NNE
Cosmos 1697 Rocket 3.7 02:12:17 10° NW 02:16:46 25° WSW 02:21:15 10° SSW
CZ-2C R/B 3.5 02:12:47 10° NNE 02:16:48 57° E 02:20:46 10° S
Cosmos 2034 Rocket 4.5 02:12:12 10° S 02:18:14 62° E 02:24:19 10° NNE
Cosmos 1263 4.3 02:16:06 10° NNW 02:19:01 52° W 02:22:03 10° S
SeaSat 1 3.7 02:15:42 10° N 02:19:57 30° NW 02:24:11 10° WSW
CZ-2C R/B 4.3 02:16:52 10° NE 02:20:56 27° E 02:24:53 10° SSE
Cosmos 1378 Rocket 4.1 02:18:52 10° NNW 02:23:02 42° W 02:27:11 10° SSW
Cosmos 1842 3.6 02:19:43 10° N 02:23:41 71° E 02:27:37 10° SSE
SL-27 R/B 3.3 02:21:49 10° S 02:25:13 48° ESE 02:28:35 10° NNE
CZ-2D R/B 4.0 02:22:10 10° NNW 02:25:35 18° WNW 02:29:02 10° W
CZ-4C R/B 2.7 02:24:18 10° SSE 02:27:30 83° WSW 02:30:42 10° NNW
NOSS 3-2 (A) 4.0 02:22:17 10° SSW 02:27:46 52° ESE 02:33:59 10° NE
Cosmos 2082 Rocket 2.9 02:22:37 10° SW 02:28:05 44° NW 02:33:32 10° NNE
Cosmos 1763 Rocket 3.7 02:25:21 10° NNW 02:30:28 52° WSW 02:35:35 10° S
Cosmos 1833 Rocket 4.0 02:27:24 10° WSW 02:32:11 28° NW 02:36:59 10° N
ERS-2 2.1 02:30:24 10° S 02:34:00 66° WSW 02:37:39 10° NNW
Meteor 1-28 Rocket 4.2 02:32:16 10° SSW 02:35:28 28° W 02:38:44 10° NW
Meteor 1-21 4.5 02:31:43 10° N 02:37:35 84° E 02:43:25 10° SSE
SL-19 R/B 3.6 02:35:11 10° NNE 02:38:06 83° WNW 02:41:16 10° SSW
Okean 2 3.4 02:34:22 10° NNW 02:38:27 65° W 02:42:27 10° S
